Monroe, NC

2:58 PM EDT on September 26, 2017 (GMT -0400)
Monroe

Weather History for KEQY - June, 2013

Change the Weather History Date:

Friday, June 7, 2013

  Actual Average (KCLT) Record (KCLT)
Temperature  
Mean Temperature 74 °F -  
Max Temperature 81 °F 83 °F 97 °F (1899)
Min Temperature 68 °F 62 °F 45 °F (2000)
Cooling Degree Days 9    
Growing Degree Days 24 (Base 50)    
Moisture  
Dew Point 68 °F    
Average Humidity 90    
Maximum Humidity 100    
Minimum Humidity 71    
Precipitation  
Precipitation 0.26 in - - ()
Sea Level Pressure  
Sea Level Pressure 29.71 in    
Wind  
Wind Speed 8 mph (NNW)    
Max Wind Speed 23 mph    
Max Gust Speed 26 mph    
Visibility 7 miles    
Events Rain , Thunderstorm    
Averages and records for this station are not official NWS values.
T = Trace of Precipitation, MM = Missing Value Source: NWS Daily Summary

Daily Weather History Graph

Daily Weather History Graph

Search for Another Location

Airport or City:

Trip Planner

Search our weather history database for the weather conditions in past years. The results will help you decide how hot, cold, wet, or windy it might be!

Date:

Astronomy

Jun. 07, 2013 Rise Set
Actual Time 6:08 AM EDT 8:34 PM EDT
Civil Twilight 5:38 AM EDT 9:04 PM EDT
Nautical Twilight 5:02 AM EDT 9:40 PM EDT
Astronomical Twilight 4:22 AM EDT 10:20 PM EDT
Moon 5:27 AM EDT (6/7) 7:49 PM EDT (6/7)
Length of Visible Light 15h 25m
Length of Day
14h 26m
Waning Crescent, 1% of the Moon is Illuminated
Jun 7
Waning Crescent
Jun 8
New
Jun 16
First Quarter
Jun 23
Full
Jun 30
Last Quarter

Hourly Weather History & Observations

Time (EDT) Temp. Heat Index Dew Point Humidity Pressure Visibility Wind Dir Wind Speed Gust Speed Precip Events Conditions
12:53 AM 70.0 °F - 69.1 °F 97% 29.81 in 7.0 mi ENE 4.6 mph - 0.00 in Rain Light Rain
1:04 AM 69.8 °F - 69.8 °F 100% 29.80 in 10.0 mi NE 5.8 mph - 0.00 in Rain Light Rain
1:17 AM 69.8 °F - 68.0 °F 94% 29.79 in 10.0 mi ENE 5.8 mph - 0.00 in Rain Light Rain
1:50 AM 69.8 °F - 68.0 °F 94% 29.77 in 8.0 mi NE 6.9 mph - 0.00 in Rain Light Rain
1:53 AM 69.1 °F - 68.0 °F 96% 29.77 in 7.0 mi ENE 6.9 mph - 0.00 in Rain Light Rain
2:53 AM 69.1 °F - 68.0 °F 96% 29.74 in 7.0 mi ENE 5.8 mph - 0.01 in Rain Light Rain
3:53 AM 69.1 °F - 68.0 °F 96% 29.70 in 9.0 mi NE 9.2 mph - 0.01 in Rain Light Rain
4:53 AM 69.1 °F - 68.0 °F 96% 29.67 in 10.0 mi NE 9.2 mph - 0.00 in Rain Light Rain
5:53 AM 69.1 °F - 68.0 °F 96% 29.67 in 7.0 mi NE 13.8 mph - 0.00 in Rain Light Rain
6:35 AM 69.8 °F - 68.0 °F 94% 29.65 in 2.0 mi NE 10.4 mph - 0.00 in   Overcast
6:53 AM 69.1 °F - 66.9 °F 93% 29.65 in 4.0 mi NNE 12.7 mph - 0.00 in   Overcast
7:53 AM 70.0 °F - 68.0 °F 93% 29.63 in 10.0 mi NNE 12.7 mph - 0.00 in   Overcast
8:42 AM 69.8 °F - 68.0 °F 94% 29.63 in 1.8 mi NNE 15.0 mph 19.6 mph 0.00 in Rain Light Rain
8:53 AM 70.0 °F - 68.0 °F 93% 29.63 in 1.5 mi North 10.4 mph - 0.00 in Rain Light Rain
9:15 AM 69.8 °F - 68.0 °F 94% 29.62 in 3.0 mi North 10.4 mph - 0.00 in Rain Light Rain
9:53 AM 70.0 °F - 68.0 °F 93% 29.63 in 4.0 mi North 10.4 mph - 0.00 in Rain Light Rain
10:18 AM 69.8 °F - 68.0 °F 94% 29.62 in 2.0 mi North 11.5 mph - 0.00 in Rain Light Rain
10:36 AM 69.8 °F - 68.0 °F 94% 29.61 in 4.0 mi North 13.8 mph - 0.00 in Rain Light Rain
10:53 AM 70.0 °F - 68.0 °F 93% 29.63 in 3.0 mi North 6.9 mph - 0.00 in Rain Light Rain
10:59 AM 69.8 °F - 68.0 °F 94% 29.63 in 1.8 mi NNW 9.2 mph - 0.00 in Rain Light Rain
11:10 AM 69.8 °F - 68.0 °F 94% 29.63 in 3.0 mi North 6.9 mph 18.4 mph 0.00 in Rain Light Rain
11:23 AM 69.8 °F - 68.0 °F 94% 29.63 in 2.5 mi NNW 10.4 mph - 0.02 in Rain Rain
11:37 AM 69.8 °F - 68.0 °F 94% 29.63 in 4.0 mi NNW 9.2 mph 19.6 mph 0.05 in Rain Rain
11:46 AM 69.8 °F - 68.0 °F 94% 29.64 in 4.0 mi NNW 10.4 mph - 0.07 in Rain Rain
11:53 AM 70.0 °F - 68.0 °F 93% 29.65 in 5.0 mi NNW 10.4 mph - 0.09 in Rain Rain
12:08 PM 69.8 °F - 68.0 °F 94% 29.64 in 9.0 mi NNW 10.4 mph - 0.00 in Rain Light Rain
12:53 PM 72.0 °F - 69.1 °F 91% 29.66 in 10.0 mi NW 10.4 mph - 0.00 in   Overcast
1:05 PM 73.4 °F - 69.8 °F 88% 29.66 in 10.0 mi NW 8.1 mph - N/A   Overcast
1:28 PM 73.4 °F - 69.8 °F 88% 29.67 in 10.0 mi WNW 5.8 mph - N/A   Overcast
1:39 PM 73.4 °F - 69.8 °F 88% 29.67 in 10.0 mi WNW 9.2 mph - N/A   Overcast
1:53 PM 73.9 °F - 69.1 °F 85% 29.68 in 10.0 mi West 5.8 mph - N/A   Overcast
2:53 PM 77.0 °F - 70.0 °F 79% 29.69 in 10.0 mi West 5.8 mph - N/A   Mostly Cloudy
3:53 PM 77.0 °F - 71.1 °F 82% 29.70 in 10.0 mi SW 11.5 mph - 0.00 in   Overcast
4:53 PM 80.1 °F 83.6 °F 71.1 °F 74% 29.70 in 10.0 mi SW 12.7 mph - N/A   Partly Cloudy
5:53 PM 80.1 °F 83.2 °F 70.0 °F 71% 29.71 in 10.0 mi SW 15.0 mph 19.6 mph N/A   Scattered Clouds
6:53 PM 80.1 °F 83.2 °F 70.0 °F 71% 29.73 in 10.0 mi SW 12.7 mph - N/A   Clear
7:53 PM 77.0 °F - 70.0 °F 79% 29.76 in 10.0 mi SSW 3.5 mph - N/A   Clear
8:28 PM 75.2 °F - 69.8 °F 83% 29.79 in 10.0 mi WSW 23.0 mph 26.5 mph N/A Thunderstorm Scattered Clouds
8:53 PM 72.0 °F - 64.0 °F 76% 29.83 in 10.0 mi WSW 11.5 mph - 0.00 in Rain , Thunderstorm Light Thunderstorms and Rain
9:18 PM 68.0 °F - 66.2 °F 94% 29.82 in 5.0 mi Calm Calm - 0.04 in Rain Rain
9:53 PM 68.0 °F - 66.0 °F 93% 29.82 in 10.0 mi ESE 3.5 mph - 0.04 in   Partly Cloudy
10:53 PM 68.0 °F - 66.0 °F 93% 29.85 in 10.0 mi NW 12.7 mph 17.3 mph 0.00 in   Overcast
11:00 PM 69.8 °F - 66.2 °F 88% 29.85 in 10.0 mi NW 9.2 mph 17.3 mph N/A   Overcast
11:24 PM 69.8 °F - 66.2 °F 88% 29.85 in 10.0 mi NW 4.6 mph - 0.00 in Rain , Thunderstorm Light Thunderstorms and Rain
11:53 PM 69.1 °F - 66.9 °F 93% 29.86 in 3.0 mi Variable 3.5 mph - 0.11 in Rain , Thunderstorm Light Rain